Location: Milton Keynes
(52.0316°N, 0.7531°W)
Time: 13:34:53
(UTC+00:00)

Envisat - Visible Passes

Search period start: 25 March 2019 00:00
Search period end: 04 April 2019 01:00
Orbit: 764 x 766 km, 98.2° (Epoch: 24 March)

Date Brightness Start Highest point End Pass type
(mag) Time Alt. Az. Time Alt. Az. Time Alt. Az.
25 Mar 6.0 20:12:32 10° WSW 20:15:07 14° W 20:17:42 10° NW visible
26 Mar 5.3 19:33:38 10° SSW 19:37:54 27° W 19:42:11 10° NW visible
27 Mar 4.0 18:55:56 10° S 19:00:52 51° W 19:05:51 10° NNW visible
28 Mar 5.8 20:00:29 10° SW 20:03:44 17° W 20:07:02 10° NW visible
29 Mar 5.0 19:22:02 10° SSW 19:26:35 32° W 19:31:09 10° NNW visible
30 Mar 6.4 20:29:15 10° W 20:29:42 10° W 20:30:09 10° WNW visible
31 Mar 5.7 20:48:37 10° SW 20:52:22 21° W 20:56:10 10° NW visible
01 Apr 4.6 20:10:32 10° SSW 20:15:16 39° W 20:20:03 10° NNW visible
02 Apr 6.0 21:16:04 10° WSW 21:18:17 13° W 21:20:31 10° WNW visible
03 Apr 5.4 20:36:54 10° SSW 20:41:01 25° W 20:45:12 10° NW visible
